Location: Unspecified
(0.0000°N, 0.0000°E)
Time: 01:57:23
(UTC+00:00)

Kosmos-2100 - Visible Passes

Search period start: 16 May 2026 00:00
Search period end: 26 May 2026 00:00
Orbit: 956 x 1010 km, 82.9° (Epoch: 15 May)

Date Brightness Start Highest point End Pass type
(mag) Time Alt. Az. Time Alt. Az. Time Alt. Az.
20 May 8.3 20:47:25 14° N 20:47:25 14° N 20:48:07 10° N visible
21 May 8.4 21:13:59 15° NNW 21:13:59 15° NNW 21:15:05 10° NNW visible
22 May 7.5 19:55:42 20° NE 19:55:42 20° NE 19:57:39 10° NNE visible
23 May 6.9 20:22:02 39° N 20:22:02 39° N 20:25:42 10° N visible
24 May 7.5 19:03:29 15° ENE 19:03:29 15° ENE 19:05:34 10° NE visible
24 May 7.3 20:48:12 34° WNW 20:48:12 34° WNW 20:52:44 10° NNW visible
25 May 6.3 19:29:26 39° E 19:29:32 39° E 19:35:11 10° NNE visible
25 May 8.3 21:14:08 15° W 21:14:45 15° W 21:18:10 10° NW visible
